Granada, Spain

5:21 PM CEST on April 30, 2017 (GMT +0200)
Granada

Weather History for LEGR - April, 2014

Change the Weather History Date:

Sunday, April 6, 2014

  Actual Average Record
Temperature  
Mean Temperature 64 °F -  
Max Temperature 84 °F 70 °F 84 °F (1999)
Min Temperature 43 °F 44 °F 33 °F (2003)
Degree Days  
Heating Degree Days 2    
Growing Degree Days 14 (Base 50)    
Moisture  
Dew Point 48 °F    
Average Humidity 59    
Maximum Humidity 100    
Minimum Humidity 14    
Precipitation  
Precipitation 0.00 in - - ()
Sea Level Pressure  
Sea Level Pressure 30.12 in    
Wind  
Wind Speed 1 mph ()    
Max Wind Speed 6 mph    
Max Gust Speed -    
Visibility 10.3 miles    
Events      
Averages and records for this station are not official NWS values.
T = Trace of Precipitation, MM = Missing Value Source: Averaged Metar Reports

Daily Weather History Graph

Daily Weather History Graph

Search for Another Location

Airport or City:

Trip Planner

Search our weather history database for the weather conditions in past years. The results will help you decide how hot, cold, wet, or windy it might be!

Date:

Astronomy

Apr. 06, 2014 Rise Set
Actual Time 7:53 AM CEST 8:41 PM CEST
Civil Twilight 7:27 AM CEST 9:08 PM CEST
Nautical Twilight 6:56 AM CEST 9:39 PM CEST
Astronomical Twilight 6:24 AM CEST 10:11 PM CEST
Moon 12:46 PM CEST (4/6) 2:22 AM CEST (4/6)
Length of Visible Light 13h 41m
Length of Day
12h 48m
Waxing Crescent, 41% of the Moon is Illuminated
Apr 6
Waxing Crescent
Apr 7
First Quarter
Apr 15
Full
Apr 22
Last Quarter
Apr 29
New

Hourly Weather History & Observations

Time (CEST) Temp. Dew Point Humidity Pressure Visibility Wind Dir Wind Speed Gust Speed Precip Events Conditions
12:00 AM 56 °F 52 °F 81% 30.19 in 19 mi WSW 2.3 mph - -  
1:00 AM 52 °F 50 °F 89% 30.20 in 16 mi SE 2.3 mph - -  
2:00 AM 50 °F 48 °F 90% 30.21 in 11 mi Calm Calm - -  
3:00 AM 49 °F 48 °F 95% 30.20 in 13 mi SW 1.2 mph - -  
4:00 AM 48 °F 47 °F 95% 30.19 in 10 mi SSW 1.2 mph - -  
5:00 AM 46 °F 45 °F 94% 30.19 in 12 mi Calm Calm - -  
6:00 AM 46 °F 46 °F 98% 30.18 in 7 mi SSW 2.3 mph - -  
6:00 AM 46.4 °F 46.4 °F 100% 30.15 in - Variable 2.3 mph - N/A   Clear
6:30 AM 46.4 °F 46.4 °F 100% 30.15 in - Calm Calm - N/A   Clear
7:00 AM 45 °F 44 °F 92% 30.19 in 6 mi Calm Calm - -  
7:00 AM 44.6 °F 44.6 °F 100% 30.15 in - Calm Calm - N/A   Clear
7:30 AM 44.6 °F 42.8 °F 93% 30.15 in - Variable 1.2 mph - N/A   Clear
8:00 AM 44 °F 43 °F 94% 30.21 in 5 mi Calm Calm - -   Mist
8:00 AM 44.6 °F 42.8 °F 93% 30.15 in 5.6 mi Calm Calm - N/A   Unknown
8:30 AM 46.4 °F 44.6 °F 93% 30.18 in 5.6 mi Calm Calm - N/A   Unknown
9:00 AM 51 °F 46 °F 79% 30.19 in 4 mi Calm Calm - -   Mist
9:00 AM 50.0 °F 46.4 °F 87% 30.18 in 5.6 mi Calm Calm - N/A   Unknown
9:30 AM 53.6 °F 48.2 °F 82% 30.18 in - Calm Calm - N/A   Clear
10:00 AM 58 °F 50 °F 67% 30.16 in 11 mi Calm Calm - -  
10:00 AM 55.4 °F 50.0 °F 82% 30.18 in - Calm Calm - N/A   Clear
10:30 AM 59.0 °F 51.8 °F 77% 30.18 in - Calm Calm - N/A   Clear
11:00 AM 65 °F 51 °F 52% 30.13 in 9 mi Calm Calm - -   Clear
11:00 AM 60.8 °F 51.8 °F 72% 30.18 in - Calm Calm - N/A   Clear
11:30 AM 64.4 °F 51.8 °F 64% 30.18 in - Calm Calm - N/A   Clear
12:00 PM 68 °F 52 °F 46% 30.11 in 16 mi NNW 1.2 mph - -  
12:00 PM 66.2 °F 53.6 °F 64% 30.15 in - Calm Calm - N/A   Clear
12:30 PM 66.2 °F 51.8 °F 60% 30.15 in 6.2 mi Calm Calm - N/A   Partly Cloudy
1:00 PM 74 °F 51 °F 34% 30.08 in 19 mi Calm Calm - -  
1:00 PM 71.6 °F 51.8 °F 50% 30.15 in 6.2 mi Calm Calm - N/A   Partly Cloudy
1:30 PM 71.6 °F 51.8 °F 50% 30.15 in 6.2 mi Variable 1.2 mph - N/A   Partly Cloudy
2:00 PM 77 °F 50 °F 28% 30.05 in 19 mi SW 1.2 mph - -   Scattered Clouds
2:00 PM 75.2 °F 53.6 °F 47% 30.12 in 6.2 mi Variable 1.2 mph - N/A   Partly Cloudy
2:30 PM 75.2 °F 51.8 °F 44% 30.12 in 6.2 mi Variable 2.3 mph - N/A   Partly Cloudy
3:00 PM 79 °F 48 °F 23% 30.02 in 19 mi NW 3.5 mph - -   Scattered Clouds
3:00 PM 75.2 °F 50.0 °F 41% 30.12 in 6.2 mi NNW 3.5 mph - N/A   Partly Cloudy
3:30 PM 77.0 °F 51.8 °F 41% 30.12 in 6.2 mi Variable 2.3 mph - N/A   Partly Cloudy
4:00 PM 81 °F 44 °F 17% 30.00 in 19 mi WNW 4.6 mph - -  
4:00 PM 78.8 °F 46.4 °F 32% 30.09 in 6.2 mi Variable 3.5 mph - N/A   Partly Cloudy
4:30 PM 78.8 °F 44.6 °F 30% 30.09 in 6.2 mi NW 4.6 mph - N/A   Partly Cloudy
5:00 PM 84 °F 43 °F 14% 29.98 in 19 mi Calm Calm - -   Scattered Clouds
5:00 PM 80.6 °F 42.8 °F 26% 30.09 in 6.2 mi Calm Calm - N/A   Partly Cloudy
5:30 PM 80.6 °F 42.8 °F 26% 30.09 in 6.2 mi Calm Calm - N/A   Partly Cloudy
6:00 PM 83 °F 43 °F 15% 29.97 in 19 mi Calm Calm - -  
6:00 PM 80.6 °F 44.6 °F 28% 30.06 in 6.2 mi Variable 1.2 mph - N/A   Partly Cloudy
6:30 PM 80.6 °F 44.6 °F 28% 30.06 in 6.2 mi Variable 2.3 mph - N/A   Partly Cloudy
7:00 PM 81 °F 46 °F 19% 29.98 in 19 mi WNW 5.8 mph - -  
7:00 PM 78.8 °F 46.4 °F 32% 30.06 in 6.2 mi Variable 4.6 mph - N/A   Partly Cloudy
7:30 PM 77.0 °F 48.2 °F 36% 30.09 in 6.2 mi West 5.8 mph - N/A   Partly Cloudy
8:00 PM 78 °F 45 °F 21% 29.99 in 16 mi West 5.8 mph - -   Scattered Clouds
8:00 PM 75.2 °F 48.2 °F 38% 30.09 in 6.2 mi West 4.6 mph - N/A   Partly Cloudy
8:30 PM 71.6 °F 50.0 °F 46% 30.09 in 6.2 mi West 5.8 mph - N/A   Partly Cloudy
9:00 PM 69.8 °F 50.0 °F 49% 30.09 in 6.2 mi SW 3.5 mph - N/A   Partly Cloudy
9:30 PM 66.2 °F 50.0 °F 56% 30.09 in - Calm Calm - N/A   Clear
10:00 PM 65 °F 51 °F 49% 30.07 in 19 mi SW 3.5 mph - -  
10:00 PM 64.4 °F 51.8 °F 64% 30.12 in - Variable 2.3 mph - N/A   Clear
10:30 PM 60.8 °F 51.8 °F 72% 30.12 in - South 4.6 mph - N/A   Clear
11:00 PM 62 °F 51 °F 58% 30.10 in 19 mi South 2.3 mph - -  
11:00 PM 62.6 °F 51.8 °F 68% 30.12 in - Variable 2.3 mph - N/A   Clear